カタログに戻る

FLOCK 4Q 27

運用中科学SSO
NORAD 58282·PAYLOAD·🇺🇸 United States

打ち上げ Nov 11, 2023 から Vandenberg Space Force Base

Loading…

次のパス (今後24時間)

TLE

最新Source: Space-Track

元期: Sep 14, 2026, 05:40 UTC

1 58282U 23174AC  26257.23672120  .00032587  00000-0  33659-3 0  9991
2 58282  97.3726 351.1365 0006035 223.1419 136.9368 15.64693579159625

AllMySatでFLOCK 4Q 27をリアルタイム追跡

Download on the App Store